Dillon, MT

7:11 PM MDT on May 24, 2017 (GMT -0600)
Dillon

Weather History for KDLN - September, 2012

Change the Weather History Date:

Saturday, September 29, 2012

  Actual Average Record
Temperature  
Mean Temperature 61 °F 50 °F  
Max Temperature 74 °F 64 °F 86 °F (1963)
Min Temperature 48 °F 35 °F 11 °F (1985)
Degree Days  
Heating Degree Days 4    
Month to date heating degree days 146  
Since 1 July heating degree days 176  
Cooling Degree Days 0    
Month to date cooling degree days 1  
Year to date cooling degree days 242  
Growing Degree Days 11 (Base 50)    
Moisture  
Dew Point 40 °F    
Average Humidity 54    
Maximum Humidity 80    
Minimum Humidity 27    
Precipitation  
Precipitation 0.01 in 0.02 in 0.46 in (2007)
Month to date precipitation 0.16 0.84  
Year to date precipitation 5.17 9.14  
Snow  
Snow 0.00 in - - ()
Snow Depth 0.00 in    
Sea Level Pressure  
Sea Level Pressure 30.04 in    
Wind  
Wind Speed 9 mph (SSW)    
Max Wind Speed 22 mph    
Max Gust Speed 26 mph    
Visibility 10 miles    
Events      
T = Trace of Precipitation, MM = Missing Value Source: NWS Daily Summary

Daily Weather History Graph

Daily Weather History Graph

Search for Another Location

Airport or City:

Trip Planner

Search our weather history database for the weather conditions in past years. The results will help you decide how hot, cold, wet, or windy it might be!

Date:

Astronomy

Sep. 29, 2012 Rise Set
Actual Time 7:26 AM MDT 7:13 PM MDT
Civil Twilight 6:57 AM MDT 7:42 PM MDT
Nautical Twilight 6:22 AM MDT 8:16 PM MDT
Astronomical Twilight 5:47 AM MDT 8:51 PM MDT
Moon 6:45 PM MDT (9/29) 7:02 AM MDT (9/29)
Length of Visible Light 12h 45m
Length of Day
11h 46m
Full, 100% of the Moon is Illuminated
Sep 29
Full
Sep 29
Full
Oct 8
Last Quarter
Oct 15
New
Oct 21
First Quarter

Hourly Weather History & Observations

Time (MDT) Temp. Dew Point Humidity Pressure Visibility Wind Dir Wind Speed Gust Speed Precip Events Conditions
12:53 AM 57.9 °F 39.9 °F 51% 29.98 in 10.0 mi SSW 11.5 mph - N/A   Mostly Cloudy
1:53 AM 57.0 °F 43.0 °F 59% 29.99 in 10.0 mi SSW 9.2 mph - N/A   Overcast
2:53 AM 53.1 °F 46.0 °F 77% 29.99 in 10.0 mi SSW 12.7 mph - 0.01 in   Overcast
3:53 AM 52.0 °F 45.0 °F 77% 29.99 in 10.0 mi SSW 11.5 mph - N/A   Scattered Clouds
4:53 AM 50.0 °F 45.0 °F 83% 29.99 in 10.0 mi SW 9.2 mph - N/A   Mostly Cloudy
5:53 AM 50.0 °F 44.1 °F 80% 30.01 in 10.0 mi SSW 12.7 mph - N/A   Mostly Cloudy
6:53 AM 51.1 °F 45.0 °F 80% 30.03 in 10.0 mi SW 6.9 mph - N/A   Overcast
7:53 AM 50.0 °F 44.1 °F 80% 30.07 in 10.0 mi SW 9.2 mph - N/A   Mostly Cloudy
8:53 AM 53.1 °F 45.0 °F 74% 30.06 in 10.0 mi SSW 10.4 mph - N/A   Overcast
9:53 AM 55.0 °F 44.1 °F 67% 30.07 in 10.0 mi SSW 10.4 mph - N/A   Mostly Cloudy
10:53 AM 63.0 °F 43.0 °F 48% 30.06 in 10.0 mi SW 9.2 mph - N/A   Clear
11:53 AM 66.0 °F 37.9 °F 36% 30.06 in 10.0 mi South 4.6 mph - N/A   Clear
12:53 PM 69.1 °F 39.0 °F 33% 30.04 in 10.0 mi SSW 11.5 mph - N/A   Clear
1:53 PM 70.0 °F 39.0 °F 32% 30.02 in 10.0 mi WSW 12.7 mph - N/A   Clear
2:53 PM 69.1 °F 37.0 °F 31% 30.04 in 10.0 mi SW 11.5 mph 21.9 mph N/A   Clear
3:53 PM 71.1 °F 36.0 °F 28% 30.01 in 10.0 mi WSW 10.4 mph - N/A   Scattered Clouds
4:53 PM 72.0 °F 36.0 °F 27% 30.01 in 10.0 mi WSW 8.1 mph - N/A   Partly Cloudy
5:53 PM 72.0 °F 35.1 °F 26% 30.01 in 10.0 mi West 13.8 mph - N/A   Scattered Clouds
6:53 PM 68.0 °F 37.0 °F 32% 30.02 in 10.0 mi NNW 6.9 mph - N/A   Scattered Clouds
7:53 PM 62.1 °F 37.0 °F 39% 30.06 in 10.0 mi NE 5.8 mph - N/A   Clear
8:53 PM 59.0 °F 35.1 °F 41% 30.07 in 10.0 mi SSE 5.8 mph - N/A   Clear
9:53 PM 57.0 °F 35.1 °F 44% 30.09 in 10.0 mi South 6.9 mph - N/A   Clear
10:53 PM 52.0 °F 35.1 °F 53% 30.09 in 10.0 mi SSE 3.5 mph - N/A   Clear
11:53 PM 53.1 °F 35.1 °F 50% 30.09 in 10.0 mi Calm Calm - N/A   Clear